| time (UTC) | temp C | wind direction | speed KPH | gust KPH | rain 1hr cm | rain 24hr cm | rain mn cm | humidity % | barometer mb |
| 20260508074517 | 16 | 291 | 3.2 | 11.3 | 0.00 | 0.00 | 0.00 | 15 | 1010.6 |
| 20260508073017 | 16 | 256 | 6.4 | 14.5 | 0.00 | 0.00 | 0.00 | 15 | 1010.8 |
| 20260508071515 | 15 | 214 | 11.3 | 17.7 | 0.00 | 0.00 | 0.00 | 16 | 1010.9 |
| 20260508070014 | 14 | 227 | 14.5 | 17.7 | 0.00 | 0.00 | 0.00 | 17 | 1011.1 |
| 20260508064510 | 15 | 243 | 11.3 | 20.9 | 0.00 | 0.00 | 0.00 | 17 | 1011.1 |
| 20260508063005 | 15 | 246 | 4.8 | 14.5 | 0.00 | 0.00 | 0.00 | 16 | 1010.9 |
| 20260508061503 | 15 | 233 | 9.7 | 14.5 | 0.00 | 0.00 | 0.00 | 16 | 1010.8 |
| 20260508060001 | 15 | 222 | 9.7 | 14.5 | 0.00 | 0.00 | 0.00 | 16 | 1011.0 |
| 20260508054642 | 17 | 293 | 6.4 | 14.5 | 0.00 | 0.00 | 0.00 | 14 | 1011.1 |
| 20260508053100 | 17 | 271 | 8.0 | 16.1 | 0.00 | 0.00 | 0.00 | 13 | 1010.9 |
| 20260508051559 | 17 | 285 | 11.3 | 22.5 | 0.00 | 0.00 | 0.00 | 13 | 1010.9 |
| 20260508050059 | 18 | 252 | 6.4 | 17.7 | 0.00 | 0.00 | 0.00 | 12 | 1010.6 |
| 20260508044558 | 17 | 228 | 6.4 | 11.3 | 0.00 | 0.00 | 0.00 | 13 | 1010.8 |
| 20260508043101 | 17 | 236 | 6.4 | 14.5 | 0.00 | 0.00 | 0.00 | 12 | 1010.9 |
| 20260508041556 | 17 | 241 | 6.4 | 9.7 | 0.00 | 0.00 | 0.00 | 12 | 1010.8 |
| 20260508040056 | 17 | 226 | 3.2 | 11.3 | 0.00 | 0.00 | 0.00 | 12 | 1010.8 |
| 20260508034556 | 17 | 230 | 4.8 | 8.0 | 0.00 | 0.00 | 0.00 | 12 | 1010.7 |
| 20260508033055 | 18 | 271 | 4.8 | 11.3 | 0.00 | 0.00 | 0.00 | 11 | 1010.5 |
| 20260508031559 | 18 | 245 | 0.0 | 8.0 | 0.00 | 0.00 | 0.00 | 11 | 1010.3 |
| 20260508024604 | 19 | 210 | 8.0 | 19.3 | 0.00 | 0.00 | 0.00 | 13 | 1009.9 |
| 20260508023152 | 20 | 238 | 3.2 | 16.1 | 0.00 | 0.00 | 0.00 | 11 | 1009.8 |
| 20260508021552 | 20 | 269 | 11.3 | 17.7 | 0.00 | 0.00 | 0.00 | 12 | 1009.7 |
| 20260508014552 | 21 | 310 | 8.0 | 20.9 | 0.00 | 0.00 | 0.00 | 12 | 1009.5 |
| 20260508013050 | 22 | 302 | 8.0 | 22.5 | 0.00 | 0.00 | 0.00 | 10 | 1009.2 |
| 20260508011551 | 23 | 287 | 8.0 | 20.9 | 0.00 | 0.00 | 0.00 | 9 | 1009.1 |
| 20260508010051 | 23 | 250 | 11.3 | 20.9 | 0.00 | 0.00 | 0.00 | 9 | 1009.0 |
| 20260508004548 | 23 | 266 | 9.7 | 25.7 | 0.00 | 0.00 | 0.00 | 9 | 1008.9 |
| 20260508003049 | 23 | 186 | 11.3 | 25.7 | 0.00 | 0.00 | 0.00 | 8 | 1009.0 |
| 20260508001546 | 23 | 217 | 20.9 | 29.0 | 0.00 | 0.00 | 0.00 | 8 | 1009.1 |
| 20260508000044 | 23 | 240 | 9.7 | 25.7 | 0.00 | 0.00 | 0.00 | 8 | 1009.3 |
| 20260507234545 | 23 | 233 | 12.9 | 29.0 | 0.00 | 0.00 | 0.00 | 9 | 1009.3 |
| 20260507233041 | 23 | 221 | 11.3 | 24.1 | 0.00 | 0.00 | 0.00 | 8 | 1009.6 |
| 20260507231544 | 23 | 224 | 16.1 | 29.0 | 0.00 | 0.00 | 0.00 | 9 | 1009.7 |
| 20260507230042 | 23 | 293 | 12.9 | 25.7 | 0.00 | 0.00 | 0.00 | 9 | 1010.0 |
| 20260507224535 | 23 | 181 | 8.0 | 24.1 | 0.00 | 0.00 | 0.00 | 9 | 1010.1 |
| 20260507223033 | 22 | 242 | 8.0 | 25.7 | 0.00 | 0.00 | 0.00 | 10 | 1010.3 |
| 20260507221529 | 22 | 271 | 12.9 | 30.6 | 0.00 | 0.00 | 0.00 | 10 | 1010.5 |
| 20260507220028 | 22 | 279 | 16.1 | 27.4 | 0.00 | 0.00 | 0.00 | 11 | 1010.8 |
| 20260507214525 | 22 | 255 | 12.9 | 20.9 | 0.00 | 0.00 | 0.00 | 11 | 1011.1 |
| 20260507213024 | 22 | 205 | 9.7 | 22.5 | 0.00 | 0.00 | 0.00 | 12 | 1011.5 |
| 20260507211533 | 21 | 203 | 12.9 | 29.0 | 0.00 | 0.00 | 0.00 | 12 | 1011.9 |
| 20260507210017 | 21 | 267 | 4.8 | 24.1 | 0.00 | 0.00 | 0.00 | 13 | 1012.2 |
| 20260507204516 | 21 | 323 | 9.7 | 24.1 | 0.00 | 0.00 | 0.00 | 12 | 1012.6 |
| 20260507203012 | 21 | 260 | 6.4 | 17.7 | 0.00 | 0.00 | 0.00 | 16 | 1012.9 |
| 20260507201511 | 20 | 244 | 8.0 | 22.5 | 0.00 | 0.00 | 0.00 | 16 | 1013.2 |
| 20260507200004 | 19 | 282 | 17.7 | 29.0 | 0.00 | 0.00 | 0.00 | 17 | 1013.4 |
| 20260507194501 | 19 | 316 | 3.2 | 24.1 | 0.00 | 0.00 | 0.00 | 18 | 1013.8 |
| 20260507193059 | 18 | 207 | 12.9 | 20.9 | 0.00 | 0.00 | 0.00 | 19 | 1014.2 |
| 20260507191559 | 18 | 285 | 9.7 | 17.7 | 0.00 | 0.00 | 0.00 | 18 | 1014.4 |
| 20260507190055 | 18 | 218 | 3.2 | 14.5 | 0.00 | 0.00 | 0.00 | 19 | 1014.9 |
| 20260507184551 | 18 | 267 | 4.8 | 14.5 | 0.00 | 0.00 | 0.00 | 19 | 1015.2 |
| 20260507183050 | 16 | 257 | 6.4 | 14.5 | 0.00 | 0.00 | 0.00 | 24 | 1015.4 |
| 20260507181544 | 15 | 316 | 9.7 | 19.3 | 0.00 | 0.00 | 0.00 | 26 | 1015.6 |
| 20260507180052 | 15 | 340 | 9.7 | 24.1 | 0.00 | 0.00 | 0.00 | 28 | 1016.0 |
| 20260507174541 | 15 | 257 | 8.0 | 16.1 | 0.00 | 0.00 | 0.00 | 25 | 1016.2 |
| 20260507173045 | 15 | 22 | 8.0 | 14.5 | 0.00 | 0.00 | 0.00 | 28 | 1016.5 |
| 20260507171544 | 15 | 51 | 6.4 | 12.9 | 0.00 | 0.00 | 0.00 | 27 | 1016.7 |
| 20260507170034 | 13 | 46 | 6.4 | 14.5 | 0.00 | 0.00 | 0.00 | 32 | 1016.9 |
| 20260507164531 | 13 | 37 | 6.4 | 14.5 | 0.00 | 0.00 | 0.00 | 35 | 1017.0 |
| 20260507163032 | 12 | 4 | 11.3 | 17.7 | 0.00 | 0.00 | 0.00 | 40 | 1017.2 |
| 20260507161536 | 12 | 15 | 11.3 | 19.3 | 0.00 | 0.00 | 0.00 | 45 | 1017.5 |
| 20260507160040 | 11 | 64 | 9.7 | 19.3 | 0.00 | 0.00 | 0.00 | 46 | 1017.5 |
| 20260507154523 | 11 | 50 | 12.9 | 19.3 | 0.00 | 0.00 | 0.00 | 48 | 1017.6 |
| 20260507153020 | 10 | 53 | 11.3 | 16.1 | 0.00 | 0.00 | 0.00 | 51 | 1017.7 |
| 20260507151519 | 10 | 43 | 9.7 | 14.5 | 0.00 | 0.00 | 0.00 | 56 | 1017.9 |
| 20260507150023 | 8 | 47 | 9.7 | 14.5 | 0.00 | 0.00 | 0.00 | 61 | 1018.1 |
| 20260507144527 | 7 | 37 | 8.0 | 17.7 | 0.00 | 0.00 | 0.00 | 66 | 1018.1 |
| 20260507143017 | 6 | 20 | 9.7 | 17.7 | 0.00 | 0.00 | 0.00 | 70 | 1018.4 |
| 20260507141520 | 5 | 43 | 12.9 | 17.7 | 0.00 | 0.00 | 0.00 | 72 | 1018.3 |
| 20260507140015 | 5 | 44 | 14.5 | 20.9 | 0.00 | 0.00 | 0.00 | 74 | 1018.4 |
| 20260507134514 | 5 | 44 | 14.5 | 19.3 | 0.00 | 0.00 | 0.00 | 74 | 1018.4 |
| 20260507133014 | 4 | 53 | 11.3 | 16.1 | 0.00 | 0.00 | 0.00 | 74 | 1018.3 |
| 20260507131512 | 4 | 79 | 6.4 | 16.1 | 0.00 | 0.00 | 0.00 | 76 | 1018.2 |
| 20260507130022 | 3 | 41 | 8.0 | 12.9 | 0.00 | 0.00 | 0.00 | 78 | 1018.1 |
| 20260507124508 | 3 | 63 | 6.4 | 11.3 | 0.00 | 0.00 | 0.00 | 80 | 1018.0 |
| 20260507123006 | 2 | 53 | 6.4 | 12.9 | 0.00 | 0.00 | 0.00 | 81 | 1017.9 |
| 20260507121506 | 2 | 51 | 6.4 | 12.9 | 0.00 | 0.00 | 0.00 | 81 | 1017.6 |
| 20260507120004 | 3 | 68 | 9.7 | 14.5 | 0.00 | 0.00 | 0.00 | 80 | 1017.6 |
| 20260507114501 | 3 | 63 | 9.7 | 14.5 | 0.00 | 0.00 | 0.00 | 79 | 1017.6 |
| 20260507113101 | 3 | 64 | 9.7 | 12.9 | 0.00 | 0.00 | 0.00 | 79 | 1017.5 |
| 20260507111558 | 3 | 66 | 6.4 | 14.5 | 0.00 | 0.00 | 0.00 | 76 | 1017.5 |
| 20260507110057 | 3 | 63 | 8.0 | 14.5 | 0.00 | 0.00 | 0.00 | 71 | 1017.5 |
| 20260507104558 | 3 | 95 | 0.0 | 6.4 | 0.00 | 0.00 | 0.00 | 72 | 1017.5 |
| 20260507103054 | 3 | 92 | 8.0 | 14.5 | 0.00 | 0.00 | 0.00 | 72 | 1017.4 |
| 20260507101556 | 3 | 54 | 9.7 | 12.9 | 0.00 | 0.00 | 0.00 | 68 | 1017.3 |
| 20260507100048 | 3 | 76 | 0.0 | 8.0 | 0.00 | 0.00 | 0.00 | 65 | 1017.1 |
| 20260507094545 | 3 | 60 | 1.6 | 8.0 | 0.00 | 0.00 | 0.00 | 65 | 1016.9 |
| 20260507093043 | 3 | 81 | 0.0 | 0.0 | 0.00 | 0.00 | 0.00 | 69 | 1016.9 |
| 20260507091543 | 4 | 72 | 0.0 | 0.0 | 0.00 | 0.00 | 0.00 | 68 | 1016.9 |
| 20260507090037 | 4 | 79 | 0.0 | 0.0 | 0.00 | 0.00 | 0.00 | 67 | 1016.8 |
| 20260507084535 | 5 | 88 | 6.4 | 14.5 | 0.00 | 0.00 | 0.00 | 66 | 1016.9 |
| 20260507083030 | 6 | 77 | 6.4 | 19.3 | 0.00 | 0.00 | 0.00 | 61 | 1016.9 |
| 20260507081524 | 7 | 78 | 9.7 | 14.5 | 0.00 | 0.00 | 0.00 | 50 | 1016.7 |
| 20260507080023 | 7 | 72 | 6.4 | 11.3 | 0.00 | 0.00 | 0.00 | 48 | 1016.6 |